Zurück zum Katalog

STARLINK-5893

AktivKommunikationVLEO
NORAD 55952·PAYLOAD·🇺🇸 United States

Gestartet Mar 17, 2023 von Vandenberg Space Force Base

Loading…

Nächste Überflüge (nächste 24 Stunden)

TLE

AktuellSource: CelesTrak SupGP

Epoche: Sep 15, 2026, 02:05 UTC

1 55952C 23037AQ  26258.08729167  .00029190  00000+0  24461-2 0  2581
2 55952  70.0004 147.0339 0002955 273.5507 325.5167 14.98317567    17

Verfolge STARLINK-5893 in Echtzeit mit AllMySat

Download on the App Store